User: anonymous   Login
Location: Canyam�s
(41.5996°N, 2.4450°E)
Time: 03:23:06
(UTC+00:00)
Language:

S3M - Orbit

View from above orbital plane
View from above orbital plane
View from above satellite
View from above satellite

Ground track
Ground track

The orbit data is extracted from the following two-line orbital elements,

1 12508U 81053B   20221.85780842 +.00000038 +00000-0 +23135-4 0  9991
2 12508 082.9597 012.2502 0036363 232.9659 126.8170 13.76360730973254
Epoch (UTC): 08 August 2020 20:35:14
Eccentricity: 0.0036363
inclination: 82.9597°
perigee height: 950 km
apogee height: 1003 km
right ascension of ascending node: 12.2502°
argument of perigee: 232.9659°
revolutions per day: 13.76360730
mean anomaly at epoch: 126.8170°
orbit number at epoch: 97325

The dashed part of the orbit path shows where the satellite is in the earth's shadow,  

DLR